Weather History for Columbia Airport, CA

Change the Weather History Date:

Tuesday, October 15, 2013

  Actual Average (KMOD) Record (KMOD)
Temperature  
Mean Temperature 58 °F -  
Max Temperature 75 °F 80 °F 98 °F (1961)
Min Temperature 41 °F 53 °F 36 °F (1966)
Degree Days  
Heating Degree Days 7 1  
Month to date heating degree days 12  
Since 1 July heating degree days 15  
Cooling Degree Days 0 3  
Month to date cooling degree days 65  
Year to date cooling degree days 1677  
Growing Degree Days 8 (Base 50)    
Moisture  
Dew Point 33 °F    
Average Humidity 46    
Maximum Humidity 76    
Minimum Humidity 20    
Precipitation  
Precipitation 0.00 in 0.02 in 0.48 in (1969)
Month to date precipitation 0.24  
Year to date precipitation 9.27  
Since 1 July precipitation 0.52  
Snow  
Snow 0.00 in - 0.00 in (2002)
Month to date snowfall  
Since 1 July snowfall  
Since 1 September snowfall  
Snow Depth -    
Sea Level Pressure  
Sea Level Pressure 30.04 in    
Wind  
Wind Speed 1 mph (SW)    
Max Wind Speed 8 mph    
Max Gust Speed -    
Visibility 10 miles    
Events      
T = Trace of Precipitation, MM = Missing Value Source: NWS Daily Summary

Daily Weather History Graph

Daily Weather History Graph

Search for Another Location

Airport:

Trip Planner

Search our weather history database for the weather conditions in past years. The results will help you decide how hot, cold, wet, or windy it might be!

Date:

Astronomy

Oct. 15, 2013 Rise Set
Actual Time 7:10 AM PDT 6:23 PM PDT
Civil Twilight 6:44 AM PDT 6:49 PM PDT
Nautical Twilight 6:13 AM PDT 7:20 PM PDT
Astronomical Twilight 5:42 AM PDT 7:50 PM PDT
Moon 4:29 PM PDT (10/15) 3:41 AM PDT (10/15)
Length of Visible Light 12h 05m
Length of Day
11h 12m
Waxing Gibbous, 88% of the Moon is Illuminated
Oct 15
Waxing Gibbous
Oct 18
Full
Oct 26
Last Quarter
Nov 3
New
Nov 9
First Quarter

Hourly Weather History & Observations

Time (PDT) Temp. Dew Point Humidity Pressure Visibility Wind Dir Wind Speed Gust Speed Precip Events Conditions
12:15 AM 44.6 °F 33.8 °F 66% 30.06 in 10.0 mi Calm Calm - N/A   Clear
12:35 AM 44.6 °F 33.8 °F 66% 30.06 in 10.0 mi Calm Calm - N/A   Clear
12:55 AM 44.6 °F 33.8 °F 66% 30.06 in 10.0 mi Calm Calm - N/A   Clear
1:15 AM 44.6 °F 33.8 °F 66% 30.06 in 10.0 mi Calm Calm - N/A   Clear
1:35 AM 44.6 °F 33.8 °F 66% 30.06 in 10.0 mi Calm Calm - N/A   Clear
1:55 AM 44.6 °F 33.8 °F 66% 30.06 in 10.0 mi Calm Calm - N/A   Clear
2:15 AM 44.6 °F 33.8 °F 66% 30.06 in 10.0 mi Calm Calm - N/A   Clear
2:35 AM 44.6 °F 33.8 °F 66% 30.06 in 10.0 mi Calm Calm - N/A   Clear
2:55 AM 44.6 °F 33.8 °F 66% 30.05 in 10.0 mi Calm Calm - N/A   Clear
3:15 AM 44.6 °F 33.8 °F 66% 30.05 in 10.0 mi Calm Calm - N/A   Clear
3:35 AM 42.8 °F 33.8 °F 70% 30.04 in 10.0 mi Calm Calm - N/A   Clear
3:55 AM 44.6 °F 33.8 °F 66% 30.04 in 10.0 mi Calm Calm - N/A   Clear
4:15 AM 42.8 °F 33.8 °F 70% 30.04 in 10.0 mi Calm Calm - N/A   Clear
4:35 AM 44.6 °F 33.8 °F 66% 30.04 in 10.0 mi Calm Calm - N/A   Clear
4:55 AM 42.8 °F 33.8 °F 70% 30.04 in 10.0 mi Calm Calm - N/A   Clear
5:15 AM 42.8 °F 33.8 °F 70% 30.04 in 10.0 mi Calm Calm - N/A   Clear
5:35 AM 42.8 °F 33.8 °F 70% 30.04 in 10.0 mi Calm Calm - N/A   Clear
5:55 AM 42.8 °F 33.8 °F 70% 30.04 in 10.0 mi Calm Calm - N/A   Clear
6:15 AM 42.8 °F 33.8 °F 70% 30.04 in 10.0 mi Calm Calm - N/A   Clear
6:35 AM 42.8 °F 33.8 °F 70% 30.04 in 10.0 mi Calm Calm - N/A   Clear
6:55 AM 41.0 °F 33.8 °F 76% 30.04 in 10.0 mi Calm Calm - N/A   Clear
7:15 AM 41.0 °F 32.0 °F 70% 30.04 in 10.0 mi Calm Calm - N/A   Clear
7:35 AM 41.0 °F 33.8 °F 76% 30.05 in 10.0 mi Calm Calm - N/A   Clear
7:55 AM 44.6 °F 35.6 °F 71% 30.05 in 10.0 mi Calm Calm - N/A   Clear
8:15 AM 46.4 °F 35.6 °F 66% 30.05 in 10.0 mi Calm Calm - N/A   Clear
8:35 AM 50.0 °F 35.6 °F 58% 30.05 in 10.0 mi Calm Calm - N/A   Clear
8:55 AM 55.4 °F 37.4 °F 51% 30.06 in 10.0 mi Calm Calm - N/A   Clear
9:15 AM 59.0 °F 33.8 °F 39% 30.06 in 10.0 mi Calm Calm - N/A   Clear
9:35 AM 64.4 °F 30.2 °F 28% 30.06 in 10.0 mi Calm Calm - N/A   Clear
9:55 AM 66.2 °F 32.0 °F 28% 30.06 in 10.0 mi Calm Calm - N/A   Clear
10:15 AM 66.2 °F 32.0 °F 28% 30.06 in 10.0 mi South 3.5 mph - N/A   Clear
10:35 AM 66.2 °F 32.0 °F 28% 30.06 in 10.0 mi Calm Calm - N/A   Clear
10:55 AM 68.0 °F 32.0 °F 26% 30.05 in 10.0 mi South 4.6 mph - N/A   Clear
11:15 AM 69.8 °F 32.0 °F 25% 30.05 in 10.0 mi South 4.6 mph - N/A   Clear
11:35 AM 71.6 °F 28.4 °F 20% 30.05 in 10.0 mi West 5.8 mph - N/A   Clear
11:55 AM 71.6 °F 28.4 °F 20% 30.05 in 10.0 mi WSW 4.6 mph - N/A   Clear
12:15 PM 71.6 °F 28.4 °F 20% 30.05 in 10.0 mi West 5.8 mph - N/A   Clear
12:35 PM 73.4 °F 30.2 °F 20% 30.05 in 10.0 mi WSW 4.6 mph - N/A   Clear
12:55 PM 73.4 °F 30.2 °F 20% 30.04 in 10.0 mi SW 4.6 mph - N/A   Clear
1:15 PM 73.4 °F 30.2 °F 20% 30.03 in 10.0 mi SW 8.1 mph - N/A   Clear
1:35 PM 73.4 °F 30.2 °F 20% 30.02 in 10.0 mi SSW 5.8 mph - N/A   Clear
1:55 PM 73.4 °F 32.0 °F 22% 30.02 in 10.0 mi West 5.8 mph - N/A   Clear
2:15 PM 73.4 °F 32.0 °F 22% 30.01 in 10.0 mi SSW 4.6 mph - N/A   Clear
2:35 PM 73.4 °F 32.0 °F 22% 30.01 in 10.0 mi WSW 5.8 mph - N/A   Clear
2:55 PM 75.2 °F 32.0 °F 21% 30.01 in 10.0 mi SW 6.9 mph - N/A   Clear
3:15 PM 75.2 °F 32.0 °F 21% 30.01 in 10.0 mi SSW 6.9 mph - N/A   Clear
3:35 PM 75.2 °F 32.0 °F 21% 30.01 in 10.0 mi SW 6.9 mph - N/A   Clear
3:55 PM 75.2 °F 32.0 °F 21% 30.01 in 10.0 mi WSW 4.6 mph - N/A   Clear
4:15 PM 73.4 °F 32.0 °F 22% 30.01 in 10.0 mi WSW 5.8 mph - N/A   Clear
4:35 PM 73.4 °F 32.0 °F 22% 30.01 in 10.0 mi SW 6.9 mph - N/A   Clear
4:55 PM 73.4 °F 32.0 °F 22% 30.01 in 10.0 mi SW 6.9 mph - N/A   Clear
5:15 PM 73.4 °F 32.0 °F 22% 30.01 in 10.0 mi SW 5.8 mph - N/A   Clear
5:55 PM 69.8 °F 32.0 °F 25% 30.01 in 10.0 mi West 5.8 mph - N/A   Clear
6:15 PM 66.2 °F 32.0 °F 28% 30.01 in 10.0 mi Calm Calm - N/A   Clear
6:35 PM 62.6 °F 32.0 °F 32% 30.01 in 10.0 mi Calm Calm - N/A   Clear
6:55 PM 59.0 °F 32.0 °F 36% 30.02 in 10.0 mi Calm Calm - N/A   Clear
7:15 PM 57.2 °F 32.0 °F 38% 30.02 in 10.0 mi Calm Calm - N/A   Clear
7:35 PM 55.4 °F 32.0 °F 41% 30.02 in 10.0 mi Calm Calm - N/A   Clear
7:55 PM 53.6 °F 32.0 °F 44% 30.02 in 10.0 mi Calm Calm - N/A   Clear
8:15 PM 51.8 °F 32.0 °F 47% 30.02 in 10.0 mi Calm Calm - N/A   Clear
8:35 PM 50.0 °F 32.0 °F 50% 30.02 in 10.0 mi Calm Calm - N/A   Clear
8:55 PM 50.0 °F 32.0 °F 50% 30.02 in 10.0 mi Calm Calm - N/A   Clear
9:15 PM 48.2 °F 32.0 °F 54% 30.03 in 10.0 mi Calm Calm - N/A   Clear
9:35 PM 48.2 °F 32.0 °F 54% 30.03 in 10.0 mi Calm Calm - N/A   Clear
9:55 PM 48.2 °F 32.0 °F 54% 30.03 in 10.0 mi Calm Calm - N/A   Clear
10:15 PM 48.2 °F 32.0 °F 54% 30.03 in 10.0 mi Calm Calm - N/A   Clear
10:35 PM 48.2 °F 32.0 °F 54% 30.04 in 10.0 mi Calm Calm - N/A   Clear
10:55 PM 46.4 °F 32.0 °F 57% 30.04 in 10.0 mi Calm Calm - N/A   Clear
11:15 PM 46.4 °F 32.0 °F 57% 30.05 in 10.0 mi Calm Calm - N/A   Clear
11:35 PM 46.4 °F 32.0 °F 57% 30.05 in 10.0 mi Calm Calm - N/A   Clear
11:55 PM 44.6 °F 32.0 °F 61% 30.05 in 10.0 mi Calm Calm - N/A   Clear